This demonstration page uses our WeatherBlox Daily Observations layout. Learn more.

Left ArrowRight Arrow

44.8408, -93.29828

Hourly Observations for July 9, 2022

Temp ( °F °C ) Dew Point ( °F °C ) Humidity (%) Winds ( mph kmh ) Pressure ( in mb ) Visibility ( mi km ) Precip ( " mm )
12:53 am 00:53 Clear 71 21.7 65 18.3 81 81 ESE 6 9 30.19 1022 10 16 0.00 0.00
1:53 am 01:53 Clear 70 21.1 65 18.3 84 84 SE 7 11 30.18 1022 10 16 0.00 0.00
2:53 am 02:53 Clear 68 20 64 17.8 87 87 Calm 30.18 1022 10 16 0.00 0.00
3:53 am 03:53 Clear 68 20 65 18.3 90 90 Calm 30.18 1022 10 16 0.00 0.00
4:53 am 04:53 Mostly Clear 68 20 64 17.8 87 87 SE 3 6 30.19 1022 10 16 0.00 0.00
5:53 am 05:53 Mostly Sunny 67 19.4 63 17.2 87 87 SE 7 11 30.19 1022 10 16 0.00 0.00
6:53 am 06:53 Mostly Sunny 67 19.4 62 16.7 84 84 SSE 6 9 30.21 1023 10 16 0.00 0.00
7:53 am 07:53 Mostly Sunny 69 20.6 61 16.1 76 76 SE 9 15 30.22 1024 10 16 0.00 0.00
8:53 am 08:53 Mostly Sunny 73 22.8 57 13.9 57 57 SSE 12 19 30.21 1023 10 16 0.00 0.00
9:53 am 09:53 Mostly Sunny 75 23.9 56 13.3 52 52 SSE 9 15 30.22 1024 10 16 0.00 0.00
10:53 am 10:53 Partly Cloudy 77 25 56 13.3 48 48 undefined N/A 30.23 1024 10 16 0.00 0.00
11:53 am 11:53 Partly Cloudy 79 26.1 58 14.4 49 49 VRB 6 9 30.22 1023 10 16 0.00 0.00
12:53 pm 12:53 Partly Cloudy 81 27.2 60 15.6 49 49 VRB 7 11 30.20 1023 10 16 0.00 0.00
1:53 pm 13:53 Partly Cloudy 82 27.8 60 15.6 47 47 SE 9 15 30.19 1022 10 16 0.00 0.00
2:53 pm 14:53 Partly Cloudy 83 28.3 61 16.1 48 48 S 10 17 30.17 1022 10 16 0.00 0.00
3:53 pm 15:53 Mostly Cloudy 82 27.8 60 15.6 47 47 S 12 19 30.15 1021 10 16 0.00 0.00
4:53 pm 16:53 Mostly Cloudy 84 28.9 60 15.6 44 44 S 13 20 30.12 1020 10 16 0.00 0.00
5:53 pm 17:53 Mostly Cloudy 83 28.3 60 15.6 46 46 S 9 15 30.13 1020 10 16 0.00 0.00
6:53 pm 18:53 Mostly Cloudy 82 27.8 60 15.6 47 47 S 8 13 30.12 1020 10 16 0.00 0.00
7:53 pm 19:53 Mostly Cloudy 81 27.2 60 15.6 49 49 S 9 15 30.11 1020 10 16 0.00 0.00
8:53 pm 20:53 Partly Cloudy 80 26.7 60 15.6 51 51 S 9 15 30.11 1020 10 16 0.00 0.00
9:53 pm 21:53 Mostly Clear 77 25 61 16.1 58 58 SSE 7 11 30.11 1020 10 16 0.00 0.00
10:53 pm 22:53 Mostly Clear 74 23.3 62 16.7 67 67 SSE 8 13 30.10 1019 10 16 0.00 0.00
11:53 pm 23:53 Mostly Clear 75 23.9 62 16.7 64 64 S 9 15 30.09 1019 10 16 0.00 0.00

Powered by AerisWeather